Карточка аэропорта UATT

Внимание!
Информация на этой странице в стадии наполнения.
Если вы не увидели какой-то информации, или заметили неточность - пожалуйста сообщите нам!
Спасибо!
Команда RU-STAFF
Название аэропортаАктобе
Название аэропорта (англ.)Aktobe
Превышение738 ft. (224.9 m.)
Координаты50°14.748', 57°12.402'
Высота перехода10000ft
Эшелон переходаFL120, QNH<733:FL130
Коды ответчика3440-3447, 3540-3547
Зона ОрВДАктобе РПИ (UATT)
Данные METARUATT 210430Z VRB01MPS CAVOK 15/05 Q1018 NOSIG RMK QFE744/0992
Проноз погоды (TAF)UATT 201700Z 2018/2118 10003MPS 9999 SCT033 TX21/2112Z TN04/2100Z
NOTAMshow/hide NOTAM
AWOS   TABLE

Информация о ВПП

ВПП Длина ВПП (м.) Покрытие Курс ВПП Частота ILS
133202Бетон135111.7
313202Бетон315111.7

Диспетчерские позиции




Спутниковое изображение